Location: Newark
(45.2500°N, 7.5833°E)
Time: 18:43:38
(UTC+00:00)

Tiros 1 despin weight - Pass Details

Date: 27 January 2020
Orbit: 594 x 642 km, 48.2° (Epoch: 27 February)

Event Time Altitude Azimuth Distance (km) Brightness Sun altitude
Rises 16:57:21 0° 282° (WNW) 2,920 ? -5.4°
Reaches altitude 10° 17:00:38 10° 258° (WSW) 2,016 ? -6.0°
Maximum altitude 17:03:05 14° 226° (SW) 1,748 ? -6.4°
Drops below altitude 10° 17:05:34 10° 193° (SSW) 2,019 ? -6.8°
Sets 17:08:51 0° 169° (S) 2,927 ? -7.3°
